weather.gov     
National Weather Service

Regional Weather Roundup
NWS Homepage
This page is being discontinued on March 12, 2014.
The same data is available at this site. Please update your bookmarks.
Thank you, and we apologize for the inconvenience.
Please send an email to SR-SRH.Webmaster@noaa.gov with any concerns.


Current Version
Previous Version:    01  02  03  04  05  06  07  08  09  10  11  12  13  14  15  16  17  18  19  20  21  22  23  24  25  26  27  28  29  30  
   31  32  33  34  35  36  37  38  39  40  41  42  43  44  45  46  47  48  49  50  51  52  53  54  
[Printable]
993
ASUS44 KOUN 220310
RWROK

WEATHER ROUNDUP FOR OKLAHOMA
NATIONAL WEATHER SERVICE NORMAN OK
1000 PM CDT TUE OCT 21 2014

NOTE: "FAIR" INDICATES FEW OR NO CLOUDS BELOW 12,000 FEET WITH NO
      SIGNIFICANT WEATHER AND/OR OBSTRUCTIONS TO VISIBILITY.

OKZ001>007-009>012-014-015-017-220400-
NORTHWEST OKLAHOMA AND THE PANHANDLE

CITY           SKY/WX    TMP DP  RH WIND       PRES   REMARKS
GAGE           CLEAR     63  53  70 S12       30.04S
ENID/WOODRING  CLEAR     63  59  88 SE3       30.04R
$$

OKZ016-021>023-033>039-044-045-220400-
SOUTHWEST OKLAHOMA

CITY           SKY/WX    TMP DP  RH WIND       PRES   REMARKS
LAWTON/REGL    CLEAR     68  54  60 SE8       30.06R
LAWTON/FT SILL CLEAR     65  55  70 S7        30.05R
FREDERICK      CLEAR     68  51  54 SE10      30.03R
CLINTON        CLEAR     67  53  61 S10       30.08R
HOBART         CLEAR     67  52  58 S10       30.06R
ALTUS AFB      CLEAR     62  53  72 SE7       30.05R
$$

OKZ018>020-024>031-220400-
CENTRAL OKLAHOMA

CITY           SKY/WX    TMP DP  RH WIND       PRES   REMARKS
OKLAHOMA CITY  CLEAR     65  57  75 S5        30.07R
OKC/WILEY POST CLEAR     68  58  70 S9        30.06R
OKC/TINKER AFB CLEAR     66  59  79 S7        30.07R
STILLWATER     CLEAR     68  59  73 SE7       30.06R
GUTHRIE        CLEAR     68  59  73 SE6       30.06R
$$

OKZ008-013-054>072-220400-
NORTHEAST OKLAHOMA

CITY           SKY/WX    TMP DP  RH WIND       PRES   REMARKS
TULSA          CLEAR     67  62  84 SE7       30.06R
TULSA/JONES    CLEAR     64  62  93 CALM      30.07R
PONCA CITY     MOCLDY    69  60  73 SE7       30.05R
BARTLESVILLE   CLEAR     57  57 100 CALM      30.08R FOG
MUSKOGEE       CLEAR     66  62  87 S5        30.08R
$$

OKZ032-040>043-046>053-073>077-220400-
SOUTH CENTRAL/SOUTHEAST OKLAHOMA

CITY           SKY/WX    TMP DP  RH WIND       PRES   REMARKS
ARDMORE/DWNTWN CLEAR     63  59  88 CALM      30.07R
MCALESTER      MOCLDY    62  60  93 CALM      30.08R
$$





U.S. Dept. of Commerce
NOAA National Weather Service
1325 East West Highway
Silver Spring, MD 20910
E-mail: w-nws.webmaster@noaa.gov
Page last modified: May 16, 2007
NATIONAL WEATHER SERVICE: for Safety, for Work, for Fun - FOR LIFE